When you browse on this site, cookies collect data to enhance your experience and personalize the content and advertising you see.
Visit our Privacy Policy to learn more. By continuing to use the site, you agree to this use of cookies and data.
  • In Lithuania
  • List of Countries
  • For 7 days
  • Water Temperature
  • Weather Map
  • Weather Widgets
  • user-avatar
    Login

    Hourly Weather Newcastle

    Today, 26 May, Tuesday

    Time Temperature Precipitation Wind Pressure Humidity
    00:00 +14°C° 0.8 mm 6 mps 763 mmHg 93%
    01:00 +14°C° 0.8 mm 6 mps 763 mmHg 93%
    02:00 +14°C° 0.3 mm 6 mps 763 mmHg 93%
    03:00 +14°C° 0.3 mm 6 mps 763 mmHg 93%
    04:00 +14°C° 0 mm 5 mps 763 mmHg 93%
    05:00 +14°C° 0.3 mm 5 mps 763 mmHg 93%
    06:00 +14°C° 0.3 mm 5 mps 764 mmHg 92%
    07:00 +14°C° 0.3 mm 5 mps 764 mmHg 92%
    08:00 +15°C° 0.2 mm 5 mps 764 mmHg 90%
    09:00 +16°C° 0.2 mm 5 mps 765 mmHg 87%
    10:00 +17°C° 0 mm 6 mps 765 mmHg 86%
    11:00 +18°C° 0.2 mm 7 mps 764 mmHg 82%
    12:00 +18°C° 0.2 mm 7 mps 764 mmHg 78%
    13:00 +18°C° 0.2 mm 7 mps 763 mmHg 74%
    14:00 +18°C° 0.1 mm 7 mps 764 mmHg 74%
    15:00 +17°C° 0.1 mm 7 mps 764 mmHg 75%
    16:00 +17°C° 0.1 mm 6 mps 764 mmHg 76%
    17:00 +16°C° 0.1 mm 6 mps 765 mmHg 80%
    18:00 +15°C° 0.1 mm 5 mps 765 mmHg 85%
    19:00 +14°C° 0.1 mm 5 mps 765 mmHg 89%
    20:00 +13°C° 0.2 mm 5 mps 766 mmHg 89%
    21:00 +13°C° 0.2 mm 4 mps 766 mmHg 90%
    22:00 +13°C° 0.2 mm 4 mps 766 mmHg 91%
    23:00 +13°C° 0.1 mm 4 mps 766 mmHg 91%

    Tomorrow, 27 May, Wednesday

    Time Temperature Precipitation Wind Pressure Humidity
    00:00 +12°C° 0.1 mm 4 mps 766 mmHg 91%
    01:00 +12°C° 0.1 mm 3 mps 766 mmHg 91%
    02:00 +12°C° 0.1 mm 3 mps 765 mmHg 92%
    03:00 +12°C° 0.1 mm 3 mps 765 mmHg 92%
    04:00 +11°C° 0.1 mm 3 mps 765 mmHg 92%
    05:00 +11°C° 0.1 mm 3 mps 765 mmHg 93%
    06:00 +11°C° 0.1 mm 3 mps 766 mmHg 94%
    07:00 +12°C° 0.1 mm 2 mps 766 mmHg 94%
    08:00 +12°C° 0 mm 3 mps 766 mmHg 88%
    09:00 +14°C° 0 mm 3 mps 766 mmHg 82%
    10:00 +17°C° 0 mm 3 mps 766 mmHg 75%
    11:00 +18°C° 0 mm 3 mps 765 mmHg 73%
    12:00 +19°C° 0 mm 3 mps 764 mmHg 70%
    13:00 +20°C° 0 mm 2 mps 764 mmHg 68%
    14:00 +19°C° 0 mm 2 mps 764 mmHg 71%
    15:00 +18°C° 0 mm 2 mps 764 mmHg 75%
    16:00 +18°C° 0 mm 2 mps 763 mmHg 78%
    17:00 +16°C° 0 mm 2 mps 764 mmHg 83%
    18:00 +15°C° 0 mm 1 mps 764 mmHg 87%
    19:00 +14°C° 0 mm 1 mps 764 mmHg 91%
    20:00 +14°C° 0 mm 1 mps 765 mmHg 92%
    21:00 +13°C° 0 mm 1 mps 765 mmHg 93%
    22:00 +12°C° 0 mm 0 mps 765 mmHg 94%
    23:00 +13°C° 0 mm 1 mps 765 mmHg 94%

    Day after tomorrow, 28 May, Thursday

    Time Temperature Precipitation Wind Pressure Humidity
    00:00 +12°C° 0 mm 1 mps 765 mmHg 95%
    01:00 +12°C° 0 mm 2 mps 764 mmHg 96%
    02:00 +12°C° 0 mm 2 mps 764 mmHg 96%
    03:00 +12°C° 0 mm 2 mps 764 mmHg 96%
    04:00 +10°C° 0 mm 2 mps 764 mmHg 97%
    05:00 +10°C° 0 mm 2 mps 765 mmHg 97%
    06:00 +10°C° 0 mm 2 mps 765 mmHg 96%
    07:00 +10°C° 0 mm 2 mps 765 mmHg 96%
    08:00 +13°C° 0 mm 2 mps 765 mmHg 88%
    09:00 +15°C° 0 mm 2 mps 765 mmHg 80%
    10:00 +17°C° 0 mm 3 mps 765 mmHg 72%
    11:00 +18°C° 0 mm 2 mps 765 mmHg 66%
    12:00 +20°C° 0 mm 2 mps 764 mmHg 60%
    13:00 +22°C° 0 mm 1 mps 764 mmHg 54%
    14:00 +21°C° 0 mm 1 mps 764 mmHg 60%
    15:00 +20°C° 0 mm 1 mps 764 mmHg 66%
    16:00 +18°C° 0 mm 2 mps 764 mmHg 72%
    17:00 +18°C° 0 mm 1 mps 765 mmHg 77%
    18:00 +15°C° 0 mm 1 mps 765 mmHg 83%
    19:00 +14°C° 0 mm 1 mps 766 mmHg 88%
    20:00 +14°C° 0.3 mm 1 mps 766 mmHg 88%
    21:00 +14°C° 0.3 mm 1 mps 766 mmHg 87%
    22:00 +14°C° 0.3 mm 2 mps 767 mmHg 87%
    23:00 +14°C° 0.2 mm 2 mps 767 mmHg 88%

    29 May, Friday

    Time Temperature Precipitation Wind Pressure Humidity
    00:00 +13°C° 0.2 mm 2 mps 767 mmHg 89%
    01:00 +13°C° 0.2 mm 2 mps 767 mmHg 90%
    02:00 +12°C° 0.2 mm 3 mps 767 mmHg 92%
    03:00 +11°C° 0.2 mm 3 mps 767 mmHg 93%
    04:00 +11°C° 0.2 mm 3 mps 767 mmHg 94%
    05:00 +10°C° 0.2 mm 3 mps 768 mmHg 95%
    06:00 +10°C° 0.2 mm 3 mps 768 mmHg 95%
    07:00 +10°C° 0.2 mm 3 mps 769 mmHg 95%
    08:00 +12°C° 0.1 mm 3 mps 769 mmHg 88%
    09:00 +14°C° 0.1 mm 3 mps 769 mmHg 81%
    10:00 +17°C° 0.1 mm 3 mps 770 mmHg 74%
    11:00 +18°C° 0.1 mm 3 mps 769 mmHg 71%
    12:00 +19°C° 0.1 mm 2 mps 769 mmHg 67%
    13:00 +20°C° 0.1 mm 2 mps 768 mmHg 64%
    14:00 +19°C° 0 mm 2 mps 768 mmHg 67%
    15:00 +18°C° 0 mm 3 mps 768 mmHg 69%
    16:00 +18°C° 0 mm 3 mps 768 mmHg 72%
    17:00 +17°C° 0 mm 2 mps 769 mmHg 78%
    18:00 +15°C° 0 mm 2 mps 769 mmHg 84%
    19:00 +14°C° 0 mm 2 mps 770 mmHg 90%
    20:00 +14°C° 0.1 mm 1 mps 770 mmHg 90%
    21:00 +13°C° 0.1 mm 1 mps 770 mmHg 90%
    22:00 +13°C° 0.1 mm 1 mps 770 mmHg 91%
    23:00 +13°C° 0.1 mm 1 mps 770 mmHg 90%

    30 May, Saturday

    Time Temperature Precipitation Wind Pressure Humidity
    00:00 +14°C° 0.1 mm 1 mps 770 mmHg 89%
    01:00 +14°C° 0.1 mm 1 mps 770 mmHg 88%
    02:00 +14°C° 0 mm 1 mps 770 mmHg 88%
    03:00 +14°C° 0 mm 1 mps 770 mmHg 88%
    04:00 +14°C° 0 mm 1 mps 770 mmHg 88%
    05:00 +13°C° 0 mm 1 mps 770 mmHg 90%
    06:00 +12°C° 0 mm 1 mps 770 mmHg 92%
    07:00 +11°C° 0 mm 1 mps 770 mmHg 94%
    08:00 +14°C° 0 mm 1 mps 770 mmHg 84%
    09:00 +16°C° 0 mm 1 mps 770 mmHg 75%
    10:00 +19°C° 0 mm 1 mps 770 mmHg 65%
    11:00 +20°C° 0 mm 1 mps 769 mmHg 61%
    12:00 +20°C° 0 mm 2 mps 769 mmHg 58%
    13:00 +21°C° 0 mm 2 mps 768 mmHg 54%
    14:00 +20°C° 0 mm 3 mps 768 mmHg 58%
    15:00 +19°C° 0 mm 3 mps 767 mmHg 63%
    16:00 +18°C° 0 mm 4 mps 767 mmHg 67%
    17:00 +17°C° 0 mm 4 mps 768 mmHg 72%
    18:00 +14°C° 0 mm 4 mps 768 mmHg 78%
    19:00 +13°C° 0 mm 4 mps 768 mmHg 83%
    20:00 +13°C° 0 mm 4 mps 768 mmHg 84%
    21:00 +12°C° 0 mm 4 mps 768 mmHg 85%
    22:00 +12°C° 0 mm 4 mps 767 mmHg 86%
    23:00 +12°C° 0 mm 4 mps 767 mmHg 87%

    31 May, Sunday

    Time Temperature Precipitation Wind Pressure Humidity
    00:00 +12°C° 0 mm 4 mps 766 mmHg 87%
    01:00 +11°C° 0 mm 4 mps 766 mmHg 88%
    02:00 +11°C° 0 mm 3 mps 766 mmHg 89%
    03:00 +11°C° 0 mm 3 mps 766 mmHg 91%
    04:00 +11°C° 0 mm 3 mps 765 mmHg 92%
    05:00 +11°C° 0 mm 3 mps 766 mmHg 92%
    06:00 +10°C° 0 mm 3 mps 766 mmHg 92%
    07:00 +10°C° 0 mm 3 mps 766 mmHg 92%
    08:00 +12°C° 0 mm 3 mps 766 mmHg 83%
    09:00 +14°C° 0 mm 3 mps 766 mmHg 73%
    10:00 +17°C° 0 mm 3 mps 765 mmHg 64%
    11:00 +18°C° 0 mm 4 mps 765 mmHg 60%
    12:00 +20°C° 0 mm 4 mps 764 mmHg 56%
    13:00 +21°C° 0 mm 5 mps 763 mmHg 52%
    14:00 +21°C° 0 mm 4 mps 763 mmHg 55%
    15:00 +20°C° 0 mm 4 mps 763 mmHg 59%
    16:00 +19°C° 0 mm 4 mps 763 mmHg 63%
    17:00 +18°C° 0 mm 4 mps 763 mmHg 68%
    18:00 +17°C° 0 mm 4 mps 764 mmHg 74%
    19:00 +14°C° 0 mm 4 mps 764 mmHg 79%
    20:00 +14°C° 0 mm 4 mps 764 mmHg 81%
    21:00 +13°C° 0 mm 3 mps 764 mmHg 84%
    22:00 +13°C° 0 mm 3 mps 764 mmHg 86%
    23:00 +12°C° 0 mm 3 mps 764 mmHg 87%
    Show more